Flag for India Weather past 2 weeks in Jaipur, Rajasthan, India

Now
63 °F

Passing clouds.


Feels Like: 63 °F
Forecast: 57 / 71 °F
Wind: 7 mph from North

Location: Jaipur / Sanganer

Current Time: Mar 3, 2015 at 12:45:22 AM

Latest Report: Mar 3, 2015 at 12:00 AM


Visibility: 2 mi

Pressure: 29.98 "Hg

Humidity: 83%

Dew point: 57 °F

Location of JaipurLocation

Historic Weather in Jaipur — Graph

°F

Jaipur temperature yesterday

Maximum temperature yesterday: 73 °F (at 4:00 PM)
Minimum temperature yesterday: 59 °F (at 7:00 AM)
Average temperature yesterday: 65 °F

Past Weeks' High & Low Weather Summary

 TemperatureHumidityPressure
High95 °F (Feb 23, 7:30 PM)100% (Mar 1, 9:00 AM)30.09 "Hg (Mar 1, 9:00 AM)
Low59 °F (Feb 26, 7:00 AM)11% (Feb 26, 5:00 PM)29.77 "Hg (Feb 25, 4:00 PM)
Average73 °F46%29.93 "Hg
* Reported Feb 15 10:30 PM — Mar 2 11:00 PM, Jaipur, Weather by CustomWeather, © 2015

Note: Actual official high and low records may vary slightly from our data, if they occured in-between our weather recording intervals... More about our weather records

Advertising

Jaipur weather history for previous 24 hours

 ConditionsComfort  
Time TempWeatherWind HumidityBarometerVisibility
11:00 PM
Mon, Mar 2
64 °FPassing clouds.6 mph78%29.98 "Hg2 mi
9:30 PM66 °FPassing clouds.6 mph73%29.98 "Hg2 mi
9:00 PM66 °FPassing clouds.5 mph78%29.98 "Hg2 mi
8:00 PM66 °FPartly cloudy.3 mph83%29.95 "Hg2 mi
7:30 PM66 °FPartly cloudy.3 mph83%29.92 "Hg2 mi
7:00 PM66 °FPartly cloudy.1 mph78%29.89 "Hg2 mi
6:00 PM68 °FMild.5 mph73%29.89 "HgN/A
5:00 PM72 °FDrizzle. Broken clouds.8 mph50%29.86 "Hg2 mi
4:00 PM73 °FScattered clouds.9 mph53%29.86 "Hg2 mi
3:00 PM72 °FScattered clouds.5 mph65%29.89 "Hg2 mi
12:30 PM68 °FScattered clouds.6 mph78%29.95 "Hg2 mi
12:00 PM68 °FScattered clouds.5 mph73%29.95 "Hg2 mi
11:30 AM66 °FFog.6 mph78%29.95 "Hg2 mi
11:00 AM64 °FFog.5 mph83%29.95 "Hg2 mi
10:30 AM63 °FFog.5 mph88%29.95 "Hg2 mi
9:30 AM61 °FFog.5 mph100%29.95 "Hg1 mi
9:00 AM59 °FFog.5 mph100%29.92 "Hg1 mi
8:00 AM59 °FFog.5 mph100%29.89 "Hg1 mi
7:00 AM59 °FFog.7 mph100%29.89 "Hg1 mi
12:00 AM61 °FFog.7 mph100%29.86 "Hg1 mi
Weather by CustomWeather, © 2015

See weather overviewHow to use our weather pages